Date,TemperatureHighF,TemperatureAvgF,TemperatureLowF,DewpointHighF,DewpointAvgF,DewpointLowF,HumidityHigh,HumidityAvg,HumidityLow,PressureMaxIn,PressureMinIn,WindSpeedMaxMPH,WindSpeedAvgMPH,GustSpeedMaxMPH,PrecipitationSumIn
2013-4-1,39,31,25,21,17,13,71,56,41,30.18,29.89,15,2,15,0.00
2013-4-2,43,32,22,19,15,12,69,52,36,30.31,30.18,13,1,13,0.00
2013-4-3,48,33,20,21,16,11,73,52,31,30.45,30.29,11,1,11,0.00
2013-4-4,59,41,23,34,25,14,72,54,39,30.30,29.93,19,2,19,0.00
2013-4-5,50,38,27,30,25,19,77,60,46,30.24,30.02,11,0,11,0.00
2013-4-6,63,48,34,47,34,22,81,61,45,30.16,29.55,23,4,23,0.00
2013-4-7,59,45,35,47,36,28,84,69,48,29.98,29.56,13,3,13,0.00
2013-4-8,56,43,35,47,37,28,88,81,70,30.00,29.57,11,2,11,0.00
2013-4-9,40,38,37,37,35,34,89,88,84,30.03,29.88,16,2,16,0.00
2013-4-10,39,36,34,36,33,31,89,89,88,30.10,29.84,18,3,18,0.00
2013-4-11,38,37,35,35,34,32,90,89,88,29.92,29.57,20,6,24,0.00
2013-4-12,42,37,35,38,34,28,90,86,77,29.80,29.52,12,2,12,0.00
2013-4-13,39,36,30,29,27,23,81,72,62,30.00,29.80,12,2,12,0.00
2013-4-14,52,39,30,46,33,24,87,80,67,30.02,29.60,20,2,20,0.00
2013-4-15,62,52,41,51,45,37,89,78,51,29.97,29.61,24,3,24,0.00
2013-4-16,60,44,32,40,35,29,88,71,47,30.29,29.95,12,1,12,0.00
2013-4-17,42,40,39,39,35,31,89,81,70,30.31,29.85,20,3,20,0.00
2013-4-18,58,47,39,55,44,34,90,88,79,29.85,29.37,28,2,28,0.00
2013-4-19,40,36,31,33,28,24,80,71,59,29.90,29.41,20,5,20,0.00
2013-4-20,48,36,26,25,22,18,74,59,38,30.42,29.90,11,2,11,0.00
2013-4-21,52,41,31,32,27,24,76,58,44,30.52,30.28,17,4,17,0.00
2013-4-22,70,53,38,42,35,28,72,53,35,30.29,30.02,17,2,17,0.00
2013-4-23,54,44,38,47,38,32,86,79,60,30.02,29.89,13,1,13,0.00
2013-4-24,54,43,33,33,29,26,81,60,35,30.05,29.94,13,1,13,0.00
2013-4-25,53,44,34,34,31,24,77,60,42,30.30,29.99,19,3,19,0.00
2013-4-26,68,52,32,47,37,24,77,58,45,30.31,30.14,28,4,28,0.00
2013-4-27,70,57,44,48,43,37,82,62,41,30.25,30.01,15,2,15,0.00
2013-4-28,73,58,49,51,45,38,78,64,45,30.01,29.79,41,0,41,0.00
2013-4-29,71,59,45,55,49,39,86,70,52,29.87,29.73,19,2,19,0.00
2013-4-30,86,72,62,60,56,53,80,59,33,29.89,29.71,57,6,57,0.00